Waynesville, MO

9:12 AM CDT on July 24, 2016 (GMT -0500)
Waynesville Regional At Forney Field

Weather History for KTBN - October, 2014

Change the Weather History Date:

Sunday, October 5, 2014

  Actual Average Record
Temperature  
Mean Temperature 58 °F -  
Max Temperature 74 °F 70 °F 84 °F (2005)
Min Temperature 42 °F 51 °F 35 °F (2004)
Degree Days  
Heating Degree Days 8    
Growing Degree Days 8 (Base 50)    
Moisture  
Dew Point 45 °F    
Average Humidity 65    
Maximum Humidity 91    
Minimum Humidity 35    
Precipitation  
Precipitation 0.00 in - - ()
Sea Level Pressure  
Sea Level Pressure 29.80 in    
Wind  
Wind Speed 6 mph (SSW)    
Max Wind Speed 16 mph    
Max Gust Speed 24 mph    
Visibility 10 miles    
Events      
Averages and records for this station are not official NWS values.
T = Trace of Precipitation, MM = Missing Value Source: NWS Daily Summary

Daily Weather History Graph

Daily Weather History Graph

Search for Another Location

Airport or City:

Trip Planner

Search our weather history database for the weather conditions in past years. The results will help you decide how hot, cold, wet, or windy it might be!

Date:

Astronomy

Oct. 05, 2014 Rise Set
Actual Time 7:07 AM CDT 6:45 PM CDT
Civil Twilight 6:41 AM CDT 7:11 PM CDT
Nautical Twilight 6:11 AM CDT 7:42 PM CDT
Astronomical Twilight 5:40 AM CDT 8:12 PM CDT
Moon 5:00 PM CDT (10/5) 3:48 AM CDT (10/5)
Length of Visible Light 12h 30m
Length of Day
11h 37m
Waxing Gibbous, 89% of the Moon is Illuminated
Oct 5
Waxing Gibbous
Oct 8
Full
Oct 15
Last Quarter
Oct 23
New
Oct 30
First Quarter

Hourly Weather History & Observations

Time (CDT) Temp. Windchill Dew Point Humidity Pressure Visibility Wind Dir Wind Speed Gust Speed Precip Events Conditions
12:58 AM 44.2 °F 42.7 °F 38.3 °F 80% 29.90 in 10.0 mi SSW 3.5 mph - N/A   Overcast
1:58 AM 42.3 °F 40.5 °F 38.3 °F 86% 29.89 in 10.0 mi South 3.5 mph - N/A   Mostly Cloudy
2:58 AM 42.1 °F 40.2 °F 39.7 °F 91% 29.87 in 10.0 mi SSE 3.5 mph - N/A   Mostly Cloudy
3:58 AM 43.5 °F 41.9 °F 39.9 °F 87% 29.85 in 10.0 mi SE 3.5 mph - N/A   Overcast
4:58 AM 45.0 °F 43.5 °F 40.6 °F 85% 29.85 in 10.0 mi ESE 3.5 mph - N/A   Overcast
5:58 AM 44.8 °F 42.4 °F 39.7 °F 82% 29.84 in 10.0 mi SE 4.6 mph - N/A   Overcast
6:58 AM 45.3 °F 43.0 °F 39.7 °F 81% 29.85 in 10.0 mi ESE 4.6 mph - N/A   Overcast
7:58 AM 45.5 °F 42.5 °F 41.2 °F 85% 29.83 in 10.0 mi SSE 5.8 mph - N/A   Overcast
8:58 AM 48.9 °F - 43.3 °F 81% 29.81 in 10.0 mi SSE 6.9 mph - N/A   Scattered Clouds
9:58 AM 59.5 °F - 45.3 °F 59% 29.79 in 10.0 mi SSW 8.1 mph - N/A   Clear
10:58 AM 64.0 °F - 47.1 °F 54% 29.79 in 10.0 mi SW 10.4 mph 19.6 mph N/A   Clear
11:58 AM 68.2 °F - 45.9 °F 45% 29.78 in 10.0 mi West 9.2 mph - N/A   Clear
12:58 PM 71.4 °F - 45.7 °F 40% 29.76 in 10.0 mi WNW 10.4 mph 21.9 mph N/A   Clear
1:58 PM 73.4 °F - 46.0 °F 38% 29.75 in 10.0 mi West 16.1 mph 24.2 mph N/A   Clear
2:20 PM 73.4 °F - 46.4 °F 38% 29.75 in 10.0 mi West 12.7 mph 21.9 mph N/A   Partly Cloudy
2:58 PM 73.8 °F - 45.9 °F 37% 29.74 in 10.0 mi WSW 12.7 mph 20.7 mph N/A   Scattered Clouds
3:58 PM 73.6 °F - 44.6 °F 35% 29.74 in 10.0 mi West 15.0 mph 23.0 mph N/A   Clear
4:58 PM 72.0 °F - 46.4 °F 40% 29.75 in 10.0 mi West 6.9 mph - N/A   Scattered Clouds
5:58 PM 70.9 °F - 47.1 °F 43% 29.75 in 10.0 mi West 6.9 mph - N/A   Mostly Cloudy
6:58 PM 64.2 °F - 50.4 °F 61% 29.76 in 10.0 mi Variable 2.3 mph - N/A   Partly Cloudy
7:58 PM 61.9 °F - 49.1 °F 63% 29.78 in 10.0 mi SW 3.5 mph - N/A   Mostly Cloudy
8:58 PM 62.6 °F - 48.7 °F 60% 29.80 in 10.0 mi West 2.3 mph - N/A   Mostly Cloudy
9:58 PM 57.7 °F - 51.1 °F 78% 29.79 in 10.0 mi SSW 2.3 mph - N/A   Clear
10:58 PM 56.8 °F - 49.8 °F 77% 29.79 in 10.0 mi SSW 4.6 mph - N/A   Overcast
11:30 PM 57.2 °F - 50.0 °F 77% 29.78 in 9.0 mi SSW 4.6 mph - N/A   Light Drizzle
11:41 PM 57.2 °F - 51.8 °F 82% 29.78 in 10.0 mi SSW 5.8 mph - N/A   Scattered Clouds
11:58 PM 56.3 °F - 51.1 °F 83% 29.78 in 10.0 mi SSW 9.2 mph - 0.00 in   Scattered Clouds